Weather History for Saltillo, Mexico

Change the Weather History Date:

Wednesday, August 7, 2013

  Actual Average Record
Temperature  
Mean Temperature 76 °F -  
Max Temperature 91 °F 82 °F 95 °F (2011)
Min Temperature 60 °F 65 °F 53 °F (2012)
Cooling Degree Days 10    
Growing Degree Days 26 (Base 50)    
Moisture  
Dew Point 57 °F    
Average Humidity 41    
Maximum Humidity 57    
Minimum Humidity 19    
Precipitation  
Precipitation 0.00 in - - ()
Sea Level Pressure  
Sea Level Pressure 29.99 in    
Wind  
Wind Speed 7 mph ()    
Max Wind Speed 17 mph    
Max Gust Speed -    
Visibility 9.1 miles    
Events      
Averages and records for this station are not official NWS values.
T = Trace of Precipitation, MM = Missing Value Source: Averaged Metar Reports

Daily Weather History Graph

Daily Weather History Graph

Search for Another Location

Airport:

Trip Planner

Search our weather history database for the weather conditions in past years. The results will help you decide how hot, cold, wet, or windy it might be!

Date:

Astronomy

Aug. 07, 2013 Rise Set
Actual Time 7:13 AM CDT 8:25 PM CDT
Civil Twilight 6:49 AM CDT 8:49 PM CDT
Nautical Twilight 6:20 AM CDT 9:18 PM CDT
Astronomical Twilight 5:50 AM CDT 9:47 PM CDT
Moon 7:52 AM CDT (8/7) 8:47 PM CDT (8/7)
Length of Visible Light 14h 00m
Length of Day
13h 11m
New Moon, 1% of the Moon is Illuminated
Aug 7
New Moon
Aug 14
First Quarter
Aug 20
Full
Aug 28
Last Quarter
Sep 5
New

Hourly Weather History & Observations

Time (CDT) Temp. Heat Index Dew Point Humidity Pressure Visibility Wind Dir Wind Speed Gust Speed Precip Events Conditions
12:40 AM 78.8 °F - 53.6 °F 42% 30.09 in 10.0 mi Calm Calm - N/A   Clear
12:50 AM 66 °F - 53 °F 53% 29.77 in 3 mi South 2.2 mph - -   Haze
3:50 AM 65 °F - 51 °F 50% 29.82 in 3 mi South 6.7 mph - -   Haze
6:00 AM 73.4 °F - 57.2 °F 57% 30.10 in 10.0 mi South 9.2 mph - N/A   Clear
6:40 AM 73.4 °F - 57.2 °F 57% 30.10 in 10.0 mi South 6.9 mph - N/A   Clear
6:48 AM 63 °F - 50 °F 53% 29.88 in 3 mi South 8.9 mph - -   Haze
7:40 AM 77.0 °F - 55.4 °F 47% 30.10 in 10.0 mi South 6.9 mph - N/A   Clear
8:40 AM 77.0 °F - 55.4 °F 47% 30.12 in 10.0 mi South 9.2 mph - N/A   Clear
9:40 AM 78.8 °F - 57.2 °F 47% 30.13 in 10.0 mi SSE 9.2 mph - N/A   Clear
9:48 AM 72 °F - 53 °F 41% 29.94 in 10 mi WNW 6.7 mph - -   Haze
10:40 AM 86.0 °F 86.6 °F 62.6 °F 45% 30.12 in 10.0 mi South 9.2 mph - N/A   Clear
11:40 AM 89.6 °F 91.1 °F 64.4 °F 43% 30.12 in 10.0 mi SSE 9.2 mph - N/A   Clear
12:40 PM 91.4 °F 94.0 °F 66.2 °F 43% 30.12 in 10.0 mi Calm Calm - N/A   Clear
12:50 PM 84 °F - 54 °F 26% 29.87 in 10 mi SSE 6.7 mph - -   Haze
1:40 PM 91.4 °F 93.2 °F 64.4 °F 41% 30.10 in 10.0 mi NNE 9.2 mph - N/A   Clear
2:40 PM 95.0 °F 98.5 °F 66.2 °F 39% 30.07 in 10.0 mi North 5.8 mph - N/A   Clear
3:40 PM 95.0 °F 98.5 °F 66.2 °F 39% 30.04 in 10.0 mi North 11.5 mph - N/A   Clear
3:48 PM 88 °F - 52 °F 19% 29.74 in 11 mi North 13.4 mph - -   Haze
4:40 PM 91.4 °F 92.1 °F 62.6 °F 38% 30.01 in 10.0 mi NE 17.3 mph - N/A   Scattered Clouds
5:40 PM 89.6 °F 89.5 °F 60.8 °F 38% 30.00 in 10.0 mi NE 13.8 mph - N/A   Scattered Clouds
6:40 PM 87.8 °F 87.6 °F 60.8 °F 40% 29.99 in 10.0 mi NE 17.3 mph - N/A   Scattered Clouds
6:48 PM 84 °F - 54 °F 25% 29.63 in 11 mi SSE 13.4 mph - -   Haze
7:40 PM 86.0 °F 84.9 °F 57.2 °F 37% 29.99 in 10.0 mi NNE 17.3 mph - N/A   Scattered Clouds
8:40 PM 82.4 °F 81.4 °F 53.6 °F 37% 30.02 in 10.0 mi NE 13.8 mph - N/A   Scattered Clouds
9:40 PM 78.8 °F - 51.8 °F 39% 30.05 in 10.0 mi NE 11.5 mph - N/A   Scattered Clouds
9:47 PM 74 °F - 50 °F 31% 29.67 in 3 mi South 4.5 mph - -   Haze
10:40 PM 78.8 °F - 51.8 °F 39% 30.08 in 10.0 mi NE 13.8 mph - N/A   Clear
11:40 PM 77.0 °F - 51.8 °F 41% 30.08 in 10.0 mi NE 11.5 mph - N/A   Clear